This is the latest recevied weather packets stored in our database for station/object K1RFS. If no packets are shown the sender has not sent any weather packets the latest 10 day(s).
| Time | Temp. | Humidity | Pressure | Rain* | Wind** | Luminosity | Snow |
|---|---|---|---|---|---|---|---|
| 1787720783 | 25° C | 36% | 1008.1 hPa | 0 mm | - | 0 W/m² | - |
| 1787720483 | 25° C | 36% | 1008.2 hPa | 0 mm | - | 0 W/m² | - |
| 1787720182 | 25° C | 37% | 1008.1 hPa | 0 mm | - | 0 W/m² | - |
| 1787719877 | 25° C | 37% | 1008.1 hPa | 0 mm | - | 0 W/m² | - |
| 1787719576 | 25.56° C | 37% | 1008.2 hPa | 0 mm | - | 0 W/m² | - |
| 1787719272 | 25.56° C | 39% | 1008.1 hPa | 0 mm | - | 0 W/m² | - |
| 1787718967 | 26.11° C | 37% | 1008 hPa | 0 mm | - | 0 W/m² | - |
| 1787718663 | 26.11° C | 36% | 1008.1 hPa | 0 mm | - | 0 W/m² | - |
| 1787718362 | 26.11° C | 36% | 1008.2 hPa | 0 mm | - | 0 W/m² | - |
| 1787718059 | 26.11° C | 37% | 1008 hPa | 0 mm | - | 0 W/m² | - |
| 1787717755 | 26.67° C | 36% | 1008.2 hPa | 0 mm | - | 0 W/m² | - |
| 1787717450 | 26.67° C | 36% | 1008.1 hPa | 0 mm | - | 0 W/m² | - |
| 1787717145 | 26.67° C | 35% | 1008.2 hPa | 0 mm | - | 0 W/m² | - |
| 1787716840 | 26.67° C | 35% | 1008.2 hPa | 0 mm | - | 0 W/m² | - |
| 1787716539 | 26.67° C | 35% | 1008 hPa | 0 mm | - | 0 W/m² | - |
| 1787716234 | 26.11° C | 35% | 1008 hPa | 0 mm | - | 0 W/m² | - |
| 1787715933 | 25° C | 35% | 1008.2 hPa | 0 mm | - | 0 W/m² | - |
| 1787715633 | 25° C | 39% | 1008 hPa | 0 mm | - | 0 W/m² | - |
| 1787715327 | 25° C | 38% | 1007.9 hPa | 0 mm | - | 0 W/m² | - |
| 1787715024 | 25.56° C | 37% | 1007.9 hPa | 0 mm | - | 0 W/m² | - |
| 1787714720 | 25.56° C | 36% | 1007.8 hPa | 0 mm | - | 0 W/m² | - |
| 1787714417 | 26.11° C | 34% | 1007.6 hPa | 0 mm | - | 0 W/m² | - |
| 1787714113 | 26.11° C | 33% | 1007.4 hPa | 0 mm | - | 0 W/m² | - |
| 1787713809 | 26.67° C | 32% | 1007.6 hPa | 0 mm | - | 0 W/m² | - |
| 1787713504 | 26.67° C | 32% | 1007.6 hPa | 0 mm | - | 0 W/m² | - |
* Rain latest hour (hover to see other rain measurements)
** Current wind speed in m/s (hover to see current wind gust speed)